Nantucket, MA

12:38 PM EDT on May 26, 2017 (GMT -0400)
Nantucket Memorial

Weather History for KACK - June, 2012

Change the Weather History Date:

Tuesday, June 12, 2012

  Actual Average Record
Temperature  
Mean Temperature 58 °F -  
Max Temperature 64 °F 66 °F 81 °F (1964)
Min Temperature 52 °F 52 °F 43 °F (1966)
Degree Days  
Heating Degree Days 8    
Growing Degree Days 8 (Base 50)    
Moisture  
Dew Point 55 °F    
Average Humidity 96    
Maximum Humidity 100    
Minimum Humidity 84    
Precipitation  
Precipitation 0.00 in - - ()
Sea Level Pressure  
Sea Level Pressure 30.17 in    
Wind  
Wind Speed 8 mph (SSE)    
Max Wind Speed 15 mph    
Max Gust Speed -    
Visibility 5 miles    
Events Fog    
Averages and records for this station are not official NWS values.
T = Trace of Precipitation, MM = Missing Value Source: NWS Daily Summary

Daily Weather History Graph

Daily Weather History Graph

Search for Another Location

Airport or City:

Trip Planner

Search our weather history database for the weather conditions in past years. The results will help you decide how hot, cold, wet, or windy it might be!

Date:

Astronomy

Jun. 12, 2012 Rise Set
Actual Time 5:06 AM EDT 8:13 PM EDT
Civil Twilight 4:32 AM EDT 8:47 PM EDT
Nautical Twilight 3:49 AM EDT 9:30 PM EDT
Astronomical Twilight 2:58 AM EDT 10:22 PM EDT
Moon 12:54 AM EDT (6/12) 1:56 PM EDT (6/12)
Length of Visible Light 16h 14m
Length of Day
15h 07m
Last Quarter, 38% of the Moon is Illuminated
Jun 12
Last Quarter
Jun 19
New
Jun 26
First Quarter
Jul 3
Full
Jul 10
Last Quarter

Hourly Weather History & Observations

Time (EDT) Temp. Dew Point Humidity Pressure Visibility Wind Dir Wind Speed Gust Speed Precip Events Conditions
12:53 AM 52.0 °F 52.0 °F 100% 30.25 in 0.8 mi South 6.9 mph - N/A   Mist
1:44 AM 53.6 °F 53.6 °F 100% 30.24 in 1.0 mi South 8.1 mph - N/A   Mist
1:53 AM 53.1 °F 53.1 °F 100% 30.24 in 0.8 mi South 6.9 mph - N/A   Mist
2:12 AM 53.6 °F 53.6 °F 100% 30.24 in 1.2 mi South 6.9 mph - N/A   Overcast
2:24 AM 53.6 °F 53.6 °F 100% 30.24 in 2.0 mi South 6.9 mph - N/A   Overcast
2:53 AM 53.1 °F 53.1 °F 100% 30.23 in 3.0 mi South 6.9 mph - N/A   Overcast
3:53 AM 53.1 °F 53.1 °F 100% 30.22 in 2.5 mi South 6.9 mph - N/A   Overcast
4:03 AM 53.6 °F 53.6 °F 100% 30.21 in 1.8 mi South 9.2 mph - N/A   Overcast
4:09 AM 53.6 °F 53.6 °F 100% 30.21 in 3.0 mi South 8.1 mph - N/A   Overcast
4:20 AM 53.6 °F 53.6 °F 100% 30.21 in 1.8 mi South 6.9 mph - N/A   Overcast
4:29 AM 53.6 °F 53.6 °F 100% 30.21 in 3.0 mi South 6.9 mph - N/A   Overcast
4:38 AM 53.6 °F 53.6 °F 100% 30.21 in 2.0 mi South 8.1 mph - N/A   Overcast
4:49 AM 53.6 °F 53.6 °F 100% 30.21 in 1.5 mi South 5.8 mph - N/A   Overcast
4:53 AM 54.0 °F 54.0 °F 100% 30.21 in 2.0 mi South 6.9 mph - N/A   Overcast
5:07 AM 53.6 °F 53.6 °F 100% 30.21 in 1.0 mi South 4.6 mph - N/A   Mist
5:15 AM 53.6 °F 53.6 °F 100% 30.21 in 0.5 mi South 5.8 mph - N/A Fog Fog
5:53 AM 53.6 °F 53.6 °F 100% 30.20 in 0.8 mi South 6.9 mph - N/A   Mist
6:23 AM 53.6 °F 53.6 °F 100% 30.20 in 0.2 mi South 6.9 mph - N/A Fog Fog
6:31 AM 55.4 °F 55.4 °F 100% 30.20 in 0.2 mi SSE 6.9 mph - N/A Fog Fog
6:53 AM 55.0 °F 55.0 °F 100% 30.21 in 0.2 mi South 5.8 mph - N/A Fog Fog
7:27 AM 55.4 °F 55.4 °F 100% 30.20 in 0.2 mi SSE 5.8 mph - N/A Fog Fog
7:34 AM 55.4 °F 55.4 °F 100% 30.20 in 0.5 mi SSE 6.9 mph - N/A Fog Fog
7:53 AM 55.9 °F 55.9 °F 100% 30.19 in 0.8 mi SE 10.4 mph - N/A   Mist
8:53 AM 57.9 °F 55.9 °F 93% 30.19 in 10.0 mi SSE 10.4 mph - N/A   Mostly Cloudy
9:05 AM 59.0 °F 55.4 °F 88% 30.19 in 10.0 mi SE 11.5 mph - N/A   Scattered Clouds
9:53 AM 62.1 °F 57.0 °F 84% 30.18 in 10.0 mi SE 12.7 mph - N/A   Partly Cloudy
10:53 AM 62.1 °F 57.0 °F 84% 30.17 in 10.0 mi SSE 13.8 mph - N/A   Overcast
11:53 AM 61.0 °F 57.9 °F 90% 30.17 in 10.0 mi SSE 13.8 mph - N/A   Overcast
12:53 PM 63.0 °F 57.9 °F 84% 30.15 in 10.0 mi SSE 13.8 mph - N/A   Overcast
1:53 PM 63.0 °F 57.9 °F 84% 30.14 in 10.0 mi SSE 15.0 mph - N/A   Mostly Cloudy
2:53 PM 61.0 °F 57.0 °F 87% 30.13 in 10.0 mi South 13.8 mph - N/A   Overcast
3:53 PM 62.1 °F 57.9 °F 86% 30.11 in 10.0 mi SSE 13.8 mph - N/A   Partly Cloudy
4:53 PM 61.0 °F 57.0 °F 87% 30.09 in 10.0 mi SSE 11.5 mph - N/A   Scattered Clouds
5:53 PM 60.1 °F 57.0 °F 90% 30.07 in 10.0 mi South 11.5 mph - N/A   Mostly Cloudy
6:53 PM 60.1 °F 57.0 °F 90% 30.06 in 10.0 mi South 10.4 mph - N/A   Overcast
7:53 PM 59.0 °F 57.0 °F 93% 30.05 in 10.0 mi SSE 10.4 mph - N/A   Overcast
8:53 PM 59.0 °F 57.0 °F 93% 30.05 in 10.0 mi SSE 10.4 mph - N/A   Scattered Clouds
9:53 PM 57.9 °F 57.0 °F 97% 30.04 in 10.0 mi SSE 10.4 mph - N/A   Mostly Cloudy
10:53 PM 57.9 °F 57.0 °F 97% 30.03 in 10.0 mi SSE 10.4 mph - N/A   Clear
11:53 PM 57.9 °F 57.0 °F 97% 30.03 in 10.0 mi SSE 10.4 mph - N/A   Mostly Cloudy